When you browse on this site, cookies collect data to enhance your experience and personalize the content and advertising you see.
Visit our Privacy Policy to learn more. By continuing to use the site, you agree to this use of cookies and data.
  • In Hungary
  • List of Countries
  • For 7 days
  • Water Temperature
  • Satellite Maps
  • Weather Map
  • News
  • Weather Widgets
  • user-avatar
    Login

    Hourly Weather Armawir

    Today, 21 November, Wednesday

    Time Temperature Precipitation Wind Pressure Humidity
    00:00 +9°C° 0 mm 1 mps 687 mmHg 61%
    01:00 +7°C° 0 mm 2 mps 687 mmHg 62%
    02:00 +7°C° 0 mm 2 mps 686 mmHg 63%
    03:00 +7°C° 0 mm 2 mps 686 mmHg 63%
    04:00 +7°C° 0 mm 2 mps 686 mmHg 64%
    05:00 +7°C° 0 mm 2 mps 686 mmHg 66%
    06:00 +7°C° 0 mm 2 mps 686 mmHg 67%
    07:00 +8°C° 0 mm 2 mps 686 mmHg 64%
    08:00 +9°C° 0 mm 2 mps 685 mmHg 61%
    09:00 +10°C° 0 mm 2 mps 685 mmHg 58%
    10:00 +12°C° 0 mm 2 mps 685 mmHg 55%
    11:00 +13°C° 0 mm 2 mps 685 mmHg 53%
    12:00 +13°C° 0 mm 3 mps 684 mmHg 50%
    13:00 +13°C° 0 mm 3 mps 684 mmHg 50%
    14:00 +13°C° 0 mm 3 mps 684 mmHg 50%
    15:00 +13°C° 0 mm 3 mps 684 mmHg 49%
    16:00 +12°C° 0.1 mm 3 mps 684 mmHg 53%
    17:00 +12°C° 0.1 mm 2 mps 684 mmHg 57%
    18:00 +10°C° 0.1 mm 2 mps 684 mmHg 61%
    19:00 +9°C° 0.1 mm 2 mps 684 mmHg 62%
    20:00 +9°C° 0.1 mm 2 mps 684 mmHg 64%
    21:00 +9°C° 0.1 mm 2 mps 684 mmHg 65%
    22:00 +9°C° 0.2 mm 2 mps 684 mmHg 67%
    23:00 +8°C° 0.2 mm 2 mps 684 mmHg 68%

    Tomorrow, 22 November, Thursday

    Time Temperature Precipitation Wind Pressure Humidity
    00:00 +8°C° 0.2 mm 2 mps 684 mmHg 69%
    01:00 +8°C° 0.2 mm 2 mps 683 mmHg 71%
    02:00 +8°C° 0.2 mm 2 mps 683 mmHg 72%
    03:00 +8°C° 0.2 mm 2 mps 683 mmHg 73%
    04:00 +8°C° 0.4 mm 2 mps 683 mmHg 74%
    05:00 +8°C° 0.4 mm 2 mps 683 mmHg 75%
    06:00 +8°C° 0.4 mm 2 mps 683 mmHg 76%
    07:00 +8°C° 0.4 mm 2 mps 683 mmHg 74%
    08:00 +9°C° 0.4 mm 2 mps 683 mmHg 73%
    09:00 +9°C° 0.4 mm 2 mps 683 mmHg 71%
    10:00 +10°C° 0.3 mm 3 mps 683 mmHg 69%
    11:00 +11°C° 0.3 mm 3 mps 683 mmHg 66%
    12:00 +11°C° 0.3 mm 3 mps 682 mmHg 64%
    13:00 +11°C° 0.3 mm 3 mps 682 mmHg 64%
    14:00 +11°C° 0.3 mm 3 mps 682 mmHg 64%
    15:00 +11°C° 0.3 mm 3 mps 682 mmHg 65%
    16:00 +12°C° 0.3 mm 2 mps 682 mmHg 67%
    17:00 +10°C° 0.3 mm 2 mps 682 mmHg 70%
    18:00 +10°C° 0.3 mm 2 mps 682 mmHg 73%
    19:00 +9°C° 0.4 mm 2 mps 682 mmHg 74%
    20:00 +9°C° 0.4 mm 2 mps 683 mmHg 75%
    21:00 +10°C° 0.4 mm 1 mps 683 mmHg 77%
    22:00 +10°C° 0.3 mm 1 mps 683 mmHg 77%
    23:00 +9°C° 0.3 mm 1 mps 683 mmHg 78%

    Day after tomorrow, 23 November, Friday

    Time Temperature Precipitation Wind Pressure Humidity
    00:00 +9°C° 0.3 mm 1 mps 683 mmHg 79%
    01:00 +9°C° 0.3 mm 1 mps 683 mmHg 79%
    02:00 +9°C° 0.3 mm 1 mps 683 mmHg 79%
    03:00 +9°C° 0.3 mm 1 mps 683 mmHg 80%
    04:00 +9°C° 0.3 mm 1 mps 684 mmHg 80%
    05:00 +8°C° 0.3 mm 1 mps 684 mmHg 81%
    06:00 +8°C° 0.3 mm 1 mps 684 mmHg 81%
    07:00 +9°C° 0.2 mm 1 mps 684 mmHg 78%
    08:00 +10°C° 0.2 mm 1 mps 685 mmHg 74%
    09:00 +10°C° 0.2 mm 1 mps 685 mmHg 71%
    10:00 +10°C° 0.2 mm 2 mps 685 mmHg 68%
    11:00 +12°C° 0.2 mm 2 mps 685 mmHg 66%
    12:00 +12°C° 0.2 mm 2 mps 685 mmHg 63%
    13:00 +13°C° 0.1 mm 2 mps 685 mmHg 61%
    14:00 +13°C° 0.1 mm 2 mps 685 mmHg 60%
    15:00 +13°C° 0.1 mm 2 mps 685 mmHg 59%
    16:00 +12°C° 0.1 mm 2 mps 685 mmHg 61%
    17:00 +11°C° 0.1 mm 1 mps 686 mmHg 64%
    18:00 +10°C° 0.1 mm 1 mps 686 mmHg 67%
    19:00 +10°C° 0.1 mm 1 mps 686 mmHg 68%
    20:00 +9°C° 0.1 mm 1 mps 687 mmHg 68%
    21:00 +9°C° 0.1 mm 1 mps 687 mmHg 69%
    22:00 +9°C° 0 mm 1 mps 688 mmHg 70%
    23:00 +8°C° 0 mm 1 mps 688 mmHg 72%

    24 November, Saturday

    Time Temperature Precipitation Wind Pressure Humidity
    00:00 +8°C° 0 mm 1 mps 688 mmHg 73%
    01:00 +7°C° 0 mm 1 mps 689 mmHg 74%
    02:00 +7°C° 0 mm 1 mps 689 mmHg 75%
    03:00 +6°C° 0 mm 2 mps 689 mmHg 75%
    04:00 +6°C° 0 mm 2 mps 689 mmHg 76%
    05:00 +5°C° 0 mm 2 mps 690 mmHg 77%
    06:00 +6°C° 0 mm 1 mps 690 mmHg 78%
    07:00 +7°C° 0 mm 1 mps 690 mmHg 74%
    08:00 +8°C° 0 mm 1 mps 691 mmHg 70%
    09:00 +9°C° 0 mm 1 mps 692 mmHg 66%
    10:00 +10°C° 0 mm 1 mps 691 mmHg 63%
    11:00 +10°C° 0 mm 1 mps 691 mmHg 60%
    12:00 +10°C° 0 mm 2 mps 691 mmHg 57%
    13:00 +10°C° 0 mm 2 mps 691 mmHg 56%
    14:00 +10°C° 0 mm 2 mps 691 mmHg 56%
    15:00 +12°C° 0 mm 2 mps 691 mmHg 55%
    16:00 +10°C° 0 mm 2 mps 691 mmHg 59%
    17:00 +9°C° 0 mm 2 mps 692 mmHg 62%
    18:00 +8°C° 0 mm 2 mps 692 mmHg 66%
    19:00 +8°C° 0 mm 2 mps 692 mmHg 68%
    20:00 +7°C° 0 mm 2 mps 693 mmHg 69%
    21:00 +7°C° 0 mm 2 mps 693 mmHg 71%
    22:00 +7°C° 0 mm 1 mps 693 mmHg 72%
    23:00 +7°C° 0 mm 1 mps 692 mmHg 73%

    25 November, Sunday

    Time Temperature Precipitation Wind Pressure Humidity
    00:00 +7°C° 0 mm 1 mps 692 mmHg 75%
    01:00 +7°C° 0 mm 1 mps 692 mmHg 75%
    02:00 +6°C° 0 mm 1 mps 691 mmHg 76%
    03:00 +6°C° 0 mm 1 mps 691 mmHg 77%
    04:00 +6°C° 0 mm 1 mps 691 mmHg 77%
    05:00 +5°C° 0 mm 1 mps 690 mmHg 78%
    06:00 +5°C° 0 mm 1 mps 690 mmHg 79%
    07:00 +6°C° 0 mm 1 mps 690 mmHg 75%
    08:00 +7°C° 0 mm 1 mps 689 mmHg 71%
    09:00 +8°C° 0 mm 1 mps 689 mmHg 67%
    10:00 +9°C° 0 mm 1 mps 688 mmHg 64%
    11:00 +10°C° 0 mm 1 mps 688 mmHg 61%
    12:00 +11°C° 0 mm 1 mps 687 mmHg 57%
    13:00 +11°C° 0 mm 1 mps 686 mmHg 56%
    14:00 +11°C° 0 mm 1 mps 686 mmHg 55%
    15:00 +11°C° 0 mm 1 mps 685 mmHg 54%
    16:00 +10°C° 0 mm 1 mps 685 mmHg 58%
    17:00 +9°C° 0 mm 1 mps 685 mmHg 61%
    18:00 +8°C° 0 mm 1 mps 685 mmHg 64%
    19:00 +6°C° 0 mm 0 mps 685 mmHg 65%
    20:00 +6°C° 0 mm 0 mps 685 mmHg 65%
    21:00 +6°C° 0 mm 0 mps 685 mmHg 65%
    22:00 +6°C° 0 mm 0 mps 685 mmHg 65%
    23:00 +7°C° 0 mm 1 mps 685 mmHg 65%

    26 November, Monday

    Time Temperature Precipitation Wind Pressure Humidity
    00:00 +6°C° 0 mm 1 mps 685 mmHg 65%
    01:00 +6°C° 0 mm 1 mps 685 mmHg 66%
    02:00 +6°C° 0 mm 1 mps 685 mmHg 66%
    03:00 +6°C° 0 mm 1 mps 685 mmHg 66%
    04:00 +6°C° 0.1 mm 1 mps 685 mmHg 67%
    05:00 +6°C° 0.1 mm 1 mps 685 mmHg 68%
    06:00 +6°C° 0.1 mm 1 mps 685 mmHg 69%
    07:00 +7°C° 0.1 mm 1 mps 685 mmHg 67%
    08:00 +8°C° 0.1 mm 1 mps 685 mmHg 65%
    09:00 +9°C° 0.1 mm 1 mps 686 mmHg 63%
    10:00 +9°C° 0 mm 1 mps 685 mmHg 61%
    11:00 +10°C° 0 mm 1 mps 685 mmHg 59%
    12:00 +10°C° 0 mm 2 mps 685 mmHg 57%
    13:00 +10°C° 0 mm 2 mps 685 mmHg 56%
    14:00 +10°C° 0 mm 2 mps 684 mmHg 55%
    15:00 +10°C° 0 mm 2 mps 684 mmHg 55%
    16:00 +9°C° 0 mm 2 mps 685 mmHg 58%
    17:00 +8°C° 0 mm 2 mps 685 mmHg 61%
    18:00 +7°C° 0 mm 2 mps 685 mmHg 65%
    19:00 +7°C° 0 mm 2 mps 686 mmHg 66%
    20:00 +6°C° 0 mm 2 mps 686 mmHg 67%
    21:00 +6°C° 0 mm 2 mps 686 mmHg 68%
    22:00 +5°C° 0 mm 2 mps 686 mmHg 69%
    23:00 +5°C° 0 mm 2 mps 687 mmHg 70%
    Show more